This demonstration page uses our WeatherBlox Daily Observations layout. Learn more.

Left ArrowRight Arrow

Hourly Observations for May 7, 2021

Temp ( °F °C ) Dew Point ( °F °C ) Humidity (%) Winds ( mph kmh ) Pressure ( in mb ) Visibility ( mi km ) Precip ( " mm )
12:15 am 00:15 Clear 42 5.7 39 4 89 89 NW 8 13 30.09 1019 10 16 0.00 0.00
12:35 am 00:35 Clear 42 5.3 39 3.9 91 91 NW 8 13 30.10 1019 10 16 0.00 0.00
12:55 am 00:55 Clear 41 5.1 39 3.7 91 91 NW 8 13 30.09 1019 10 16 0.00 0.00
1:15 am 01:15 Clear 40 4.7 38 3.4 91 91 NNW 6 9 30.09 1019 10 16 0.00 0.00
1:35 am 01:35 Clear 40 4.5 38 3.2 91 91 NNW 5 7 30.09 1019 10 16 0.00 0.00
1:55 am 01:55 Clear 39 4 37 2.8 92 92 NW 5 7 30.09 1019 10 16 0.00 0.00
2:15 am 02:15 Clear 39 3.8 37 2.6 92 92 NW 5 7 30.08 1019 10 16 0.00 0.00
2:35 am 02:35 Clear 38 3.5 37 2.5 93 93 WNW 3 6 30.08 1019 10 16 0.00 0.00
2:55 am 02:55 Clear 38 3.1 36 2.4 95 95 Calm 30.08 1018 10 16 0.00 0.00
3:15 am 03:15 Partly Cloudy 37 3 36 2.3 95 95 Calm 30.07 1018 7 11 0.00 0.00
3:35 am 03:35 Partly Cloudy 37 2.7 36 2.1 96 96 Calm 30.07 1018 7 11 0.00 0.00
3:55 am 03:55 Clear 37 2.8 36 2.3 97 97 Calm 30.07 1018 7 11 0.00 0.00
4:15 am 04:15 Partly Cloudy 37 2.7 36 2.2 97 97 Calm 30.07 1018 7 11 0.00 0.00
4:35 am 04:35 Mostly Cloudy 37 2.7 36 2.1 96 96 WNW 3 6 30.07 1018 7 11 0.00 0.00
4:55 am 04:55 Cloudy 39 3.9 38 3.1 95 95 WNW 5 7 30.06 1018 7 11 0.00 0.00
5:15 am 05:15 Cloudy 39 4.1 38 3.2 94 94 NW 3 6 30.06 1018 7 11 0.00 0.00
5:35 am 05:35 Cloudy 40 4.2 38 3.2 93 93 Calm 30.06 1018 7 11 0.00 0.00
5:55 am 05:55 Cloudy 39 3.8 37 3 95 95 W 3 6 30.06 1018 7 11 0.00 0.00
6:15 am 06:15 Cloudy with Mist and Fog 38 3.6 37 3 96 96 W 3 6 30.06 1018 5 8 0.00 0.00
6:35 am 06:35 Partly Cloudy with Mist and Fog 38 3.5 37 3 97 97 Calm 30.06 1018 5 8 0.00 0.00
6:55 am 06:55 Sunny with Mist and Fog 38 3.6 37 3 96 96 Calm 30.07 1018 4 6 0.00 0.00
7:15 am 07:15 Sunny with Mist and Fog 37 3 37 2.6 97 97 Calm 30.08 1019 3 4 0.00 0.00
7:35 am 07:35 Sunny with Mist and Fog 38 3.5 38 3.1 97 97 Calm 30.07 1018 3 4 0.00 0.00
7:55 am 07:55 Sunny with Mist and Fog 40 4.3 39 3.7 96 96 Calm 30.08 1019 3 5 0.00 0.00
8:15 am 08:15 Sunny 42 5.5 39 3.7 88 88 WSW 5 7 30.08 1019 7 11 0.00 0.00
8:35 am 08:35 Sunny 44 6.7 40 4.2 84 84 WSW 8 13 30.07 1018 10 16 0.00 0.00
8:55 am 08:55 Sunny 46 7.6 39 3.9 78 78 W 8 13 30.07 1018 10 16 0.00 0.00
9:15 am 09:15 Sunny 47 8.4 39 3.8 73 73 WSW 7 11 30.07 1018 10 16 0.00 0.00
9:35 am 09:35 Sunny 48 9.1 38 3.2 67 67 WSW 9 15 30.06 1018 10 16 0.00 0.00
9:55 am 09:55 Sunny 50 10 39 3.8 66 66 WSW 7 11 30.06 1018 10 16 0.00 0.00
10:15 am 10:15 Sunny 50 10.2 38 3.6 64 64 WSW 8 13 30.06 1018 10 16 0.00 0.00
10:35 am 10:35 Sunny 52 11.2 39 3.8 61 61 WSW 13 20 30.05 1017 10 16 0.00 0.00
10:55 am 10:55 Sunny 54 12.2 41 5 62 62 WSW 10 17 30.04 1017 10 16 0.00 0.00
11:15 am 11:15 Sunny 54 12.4 40 4.4 58 58 W 12 19 30.04 1017 10 16 0.00 0.00
11:35 am 11:35 Partly Cloudy 56 13.4 42 5.6 59 59 WSW 12 19 30.04 1017 10 16 0.00 0.00
11:55 am 11:55 Mostly Cloudy 56 13.2 41 5 58 58 W 7 11 30.04 1017 10 16 0.00 0.00
12:15 pm 12:15 Partly Cloudy 57 14 40 4.4 53 53 WSW 14 22 30.04 1017 10 16 0.00 0.00
12:35 pm 12:35 Mostly Cloudy 58 14.6 37 2.8 45 45 WNW 7 11 30.02 1017 10 16 0.00 0.00
12:55 pm 12:55 Mostly Cloudy 57 14.1 37 2.8 47 47 W 9 15 30.03 1017 10 16 0.00 0.00
1:15 pm 13:15 Mostly Cloudy 58 14.5 38 3.6 48 48 W 12 19 30.02 1016 10 16 0.00 0.00
1:35 pm 13:35 Mostly Cloudy 59 14.9 38 3.5 47 47 WSW 16 26 29.99 1016 10 16 0.00 0.00
1:55 pm 13:55 Mostly Cloudy 59 14.8 38 3.2 46 46 WSW 12 19 29.98 1015 10 16 0.00 0.00
2:15 pm 14:15 Cloudy 59 15.2 37 2.9 44 44 WSW 15 24 29.98 1015 10 16 0.00 0.00
2:35 pm 14:35 Cloudy 60 15.3 37 3 44 44 WSW 14 22 29.96 1015 10 16 0.00 0.00
2:55 pm 14:55 Mostly Cloudy 59 15 40 4.4 49 49 WSW 16 26 29.96 1015 10 16 0.00 0.00
3:15 pm 15:15 Mostly Cloudy 61 16.1 40 4.6 47 47 WSW 16 26 29.95 1014 10 16 0.00 0.00
3:35 pm 15:35 Partly Cloudy 60 15.5 38 3.6 45 45 WSW 15 24 29.94 1014 10 16 0.00 0.00
3:55 pm 15:55 Mostly Cloudy with Light Rain 57 13.8 40 4.5 54 54 WSW 16 26 29.95 1014 7 11 0.00 0.00
4:15 pm 16:15 Cloudy with Light Rain 55 13 40 4.6 57 57 W 10 17 29.95 1014 10 16 0.00 0.00
4:35 pm 16:35 Cloudy with Rain 53 11.5 43 6 69 69 Calm 29.97 1015 10 16 0.00 0.00
4:55 pm 16:55 Cloudy with Heavy Rain 52 11.2 44 6.8 75 75 N 7 11 29.97 1015 5 8 0.04 1.02
5:15 pm 17:15 Cloudy with Light Rain 53 11.4 46 8 80 80 SE 5 7 29.94 1014 7 11 0.01 0.25
5:35 pm 17:35 Partly Cloudy 55 12.5 46 7.5 72 72 SSE 5 7 29.92 1013 10 16 0.01 0.25
5:55 pm 17:55 Sunny 56 13.3 45 7.4 68 68 SSW 9 15 29.92 1013 10 16 0.01 0.25
6:15 pm 18:15 Sunny 56 13.6 46 7.7 68 68 SW 8 13 29.92 1013 10 16 0.00 0.00
6:35 pm 18:35 Sunny with Thunderstorms 57 14 47 8.4 69 69 S 7 11 29.92 1013 10 16 0.00 0.00
6:55 pm 18:55 Partly Cloudy 57 13.7 45 7 64 64 WNW 7 11 29.93 1013 10 16 0.00 0.00
7:15 pm 19:15 Partly Cloudy 57 13.9 44 6.4 61 61 N 16 26 29.94 1014 10 16 0.00 0.00
7:35 pm 19:35 Sunny 55 12.9 43 6.3 64 64 N 15 24 29.95 1014 10 16 0.00 0.00
8:15 pm 20:15 Partly Cloudy 52 11.1 38 3.6 60 60 N 15 24 29.98 1015 10 16 0.00 0.00
8:35 pm 20:35 Sunny 50 10.2 37 2.9 61 61 N 16 26 29.99 1016 10 16 0.00 0.00
8:55 pm 20:55 Clear 49 9.4 36 2.2 61 61 N 15 24 30.00 1016 10 16 0.00 0.00
9:15 pm 21:15 Clear 48 8.7 35 1.7 62 62 N 13 20 30.02 1016 10 16 0.00 0.00
9:35 pm 21:35 Clear 47 8.1 35 1.5 63 63 N 9 15 30.03 1017 10 16 0.00 0.00
9:55 pm 21:55 Clear 46 7.5 35 1.7 67 67 N 9 15 30.04 1017 10 16 0.00 0.00
10:15 pm 22:15 Clear 45 7.2 34 1.2 66 66 N 9 15 30.05 1018 10 16 0.00 0.00
10:35 pm 22:35 Clear 45 7 34 0.9 65 65 N 8 13 30.06 1018 10 16 0.00 0.00
10:55 pm 22:55 Clear 44 6.7 33 0.5 65 65 N 9 15 30.07 1018 10 16 0.00 0.00
11:15 pm 23:15 Clear 43 6.2 33 0.5 67 67 N 7 11 30.07 1018 10 16 0.00 0.00
11:35 pm 23:35 Clear 42 5.8 33 0.5 69 69 N 6 9 30.09 1019 10 16 0.00 0.00
11:55 pm 23:55 Clear 41 5.2 33 0.5 72 72 NNW 6 9 30.09 1019 10 16 0.00 0.00

Powered by AerisWeather